This is the latest recevied weather packets stored in our database for station/object YO8PIC-4. If no packets are shown the sender has not sent any weather packets the latest 10 day(s).
| Time | Temp. | Humidity | Pressure | Rain* | Wind** | Luminosity | Snow |
|---|---|---|---|---|---|---|---|
| 1777799608 | 23.33° C | 49% | 1020.3 hPa | - | - | - | - |
| 1777799008 | 23.33° C | 50% | 1020.3 hPa | - | - | - | - |
| 1777798408 | 23.89° C | 49% | 1020.4 hPa | - | - | - | - |
| 1777797808 | 25.56° C | 44% | 1020.4 hPa | - | - | - | - |
| 1777797207 | 25.56° C | 45% | 1020.5 hPa | - | - | - | - |
| 1777796607 | 25.56° C | 44% | 1020.5 hPa | - | - | - | - |
| 1777796007 | 26.11° C | 42% | 1020.7 hPa | - | - | - | - |
| 1777795407 | 25.56° C | 45% | 1020.6 hPa | - | - | - | - |
| 1777794807 | 25.56° C | 44% | 1020.7 hPa | - | - | - | - |
| 1777794207 | 25.56° C | 43% | 1020.5 hPa | - | - | - | - |
| 1777793606 | 26.67° C | 42% | 1020.8 hPa | - | - | - | - |
| 1777793006 | 26.67° C | 41% | 1020.8 hPa | - | - | - | - |
| 1777792406 | 26.11° C | 40% | 1020.9 hPa | - | - | - | - |
| 1777791806 | 24.44° C | 46% | 1020.9 hPa | - | - | - | - |
| 1777791206 | 22.78° C | 50% | 1020.9 hPa | - | - | - | - |
| 1777790605 | 22.78° C | 49% | 1020.9 hPa | - | - | - | - |
| 1777790005 | 22.78° C | 49% | 1020.8 hPa | - | - | - | - |
| 1777789405 | 22.78° C | 48% | 1020.8 hPa | - | - | - | - |
| 1777788805 | 22.78° C | 47% | 1020.9 hPa | - | - | - | - |
| 1777788205 | 22.78° C | 45% | 1020.9 hPa | - | - | - | - |
| 1777787605 | 22.78° C | 43% | 1020.9 hPa | - | - | - | - |
| 1777787005 | 24.44° C | 35% | 1020.9 hPa | - | - | - | - |
| 1777786405 | 24.44° C | 36% | 1020.9 hPa | - | - | - | - |
| 1777785804 | 23.89° C | 38% | 1020.9 hPa | - | - | - | - |
| 1777785204 | 27.22° C | 44% | 1020.9 hPa | - | - | - | - |
* Rain since midnight (hover to see other rain measurements)
** Current wind speed in m/s (hover to see current wind gust speed)